Theta_e
314 314 314 315 314 317 322 323 327 331 330 329 333 327 322 322 321 323 322 323 324 320 319 320 320 320 321 321 322 321 320 321 321 322 328 328 319 320 320 320 321 320 320 319 320 322 323 325 326 327 326 326 326 327 327 327 328 329 325 319 319 319 320 320 320 320 320 321 322 322 323 325 327 330 332 331 330 329 328 325 327 331 332 333 334 336 337 336 334 331 330 331 331 331 330 329 328
313 314 314 314 316 321 323 322 327 331 331 328 329 324 320 325 324 323 322 322 323 320 319 320 321 321 320 320 320 320 321 321 320 321 323 322 319 321 320 320 321 320 320 319 319 320 321 323 325 326 326 326 325 325 326 327 327 329 325 319 319 319 320 320 321 321 320 322 322 323 325 329 331 333 335 334 333 332 330 328 330 332 333 334 334 336 337 335 333 331 331 332 331 332 332 332 330
313 314 313 315 320 323 324 325 329 330 328 323 322 325 321 323 322 321 322 321 321 320 320 320 322 322 320 321 321 322 322 321 321 321 321 321 322 321 319 320 321 321 321 319 319 319 320 321 323 325 326 326 325 325 325 326 327 328 326 320 319 320 320 320 321 321 321 322 322 323 326 330 333 334 335 334 334 333 332 331 332 333 334 334 335 335 335 332 329 328 328 329 326 327 331 333 333
313 314 314 319 322 325 327 329 332 327 324 323 319 323 322 321 321 320 321 319 321 320 320 320 321 321 321 322 321 321 321 321 321 321 321 322 322 320 319 320 321 321 320 320 319 319 319 320 321 323 324 325 325 325 324 325 326 328 327 321 320 320 321 321 322 322 321 321 322 324 327 330 333 334 335 335 335 333 332 332 332 333 334 334 334 333 331 326 323 320 320 320 318 318 322 327 331
313 314 314 320 323 324 328 327 329 323 321 327 319 319 321 320 322 321 320 320 320 320 320 320 321 321 321 322 321 321 321 321 321 321 321 320 319 318 319 319 320 321 321 321 320 319 319 319 320 320 322 323 324 325 324 325 325 327 327 323 321 321 321 322 323 323 322 321 322 324 327 331 333 334 335 335 334 332 331 331 331 332 332 332 331 330 327 323 320 317 314 313 313 313 314 317 323
316 318 316 319 322 321 325 326 328 325 324 327 320 319 320 318 321 319 320 320 320 321 320 320 321 321 321 321 321 320 321 322 321 320 319 318 318 317 318 318 319 320 320 321 320 320 319 319 320 321 321 322 323 324 324 324 325 326 327 325 323 323 323 324 324 324 323 322 322 324 328 332 334 334 335 335 332 330 331 332 331 331 331 330 329 328 326 324 322 317 313 311 311 311 312 312 314
322 324 321 321 322 320 323 324 327 328 327 325 320 320 319 318 320 319 320 320 320 321 320 321 320 320 321 321 321 321 321 321 319 319 318 318 317 317 317 317 318 318 320 321 321 320 319 319 319 320 321 321 322 323 324 323 324 325 326 327 325 324 325 326 326 325 324 323 323 324 328 332 333 334 336 334 330 329 332 332 330 330 330 331 330 329 328 326 323 316 311 310 310 310 311 311 311
323 322 321 324 326 324 324 325 327 327 325 322 319 320 318 319 319 320 321 319 320 321 321 321 319 321 322 320 321 321 321 320 318 318 318 317 317 317 317 316 316 317 318 320 321 321 319 319 319 320 321 322 323 324 324 324 324 324 325 326 326 326 327 327 327 326 325 323 324 325 329 333 334 334 335 333 330 330 332 331 330 329 329 330 330 330 329 328 325 317 311 309 309 309 309 310 310
321 321 320 324 328 327 328 328 329 327 324 321 318 319 319 319 319 320 321 320 320 320 321 321 320 321 321 320 320 321 321 320 318 317 317 317 317 316 317 316 316 315 317 319 320 320 320 320 318 319 320 322 323 324 325 325 325 324 324 324 325 326 327 327 327 327 325 324 324 326 331 334 334 334 334 332 331 330 329 329 329 328 328 328 328 326 324 323 321 316 310 308 308 308 308 308 308
322 322 320 326 330 327 329 329 328 327 323 320 318 319 319 319 319 319 320 320 320 320 321 321 321 321 320 320 320 321 322 320 318 317 317 317 317 316 317 316 316 315 316 318 319 320 320 320 319 318 319 321 323 324 325 325 325 324 325 324 324 325 326 326 327 328 326 324 324 327 331 334 335 334 333 332 331 329 326 325 325 325 324 322 320 318 315 313 312 310 308 307 307 306 306 306 306
325 322 319 326 329 325 327 326 326 327 323 320 318 318 320 319 318 319 319 319 320 319 320 320 320 320 319 320 319 322 322 320 318 317 318 317 317 316 316 316 316 316 316 317 318 320 320 320 320 319 319 319 321 323 324 324 324 324 324 324 324 325 325 325 326 328 327 325 325 325 329 334 336 334 332 331 329 326 324 323 322 320 317 314 312 310 308 308 308 307 306 306 305 304 304 304 304
325 326 323 325 326 325 326 324 324 328 327 323 319 319 319 318 319 320 319 318 318 317 319 320 320 320 319 320 320 322 323 321 319 318 318 317 317 316 316 316 316 316 316 316 317 319 319 320 320 320 320 319 319 321 323 323 323 324 324 324 324 324 325 325 326 328 329 327 325 324 327 332 334 333 331 330 328 325 322 320 319 316 313 309 308 307 307 307 306 305 305 304 304 304 304 304 304
323 325 325 326 328 324 322 324 327 331 330 323 318 319 318 318 319 319 318 318 317 317 320 319 319 320 319 320 319 320 322 322 320 319 318 317 317 317 317 317 316 316 316 316 316 317 318 319 320 320 320 319 319 319 320 321 322 323 323 324 324 324 325 325 326 329 329 328 325 324 326 329 331 331 329 328 326 323 319 318 316 313 309 307 306 306 306 305 305 305 304 304 304 304 305 305 305
322 322 323 327 330 325 323 325 327 326 326 322 317 318 318 318 318 318 319 318 318 318 320 319 318 319 318 319 319 320 320 320 321 320 319 318 317 318 317 316 316 316 316 316 316 317 317 318 319 320 320 320 320 319 318 318 319 321 322 324 325 325 325 325 326 328 329 327 326 325 325 327 328 328 327 327 325 321 318 316 314 310 306 306 305 304 304 304 304 304 304 304 304 306 306 307 307
319 321 323 326 328 328 325 325 327 324 323 323 318 318 318 318 318 317 318 318 318 318 318 318 317 318 318 318 319 320 319 319 320 319 319 318 318 318 317 317 316 316 316 316 316 316 316 317 318 319 320 320 320 320 319 317 317 318 320 322 324 325 325 325 326 328 328 327 325 324 324 324 325 325 324 323 322 319 316 314 313 310 305 304 304 304 304 304 304 304 304 305 306 307 307 307 308
319 321 326 327 327 328 326 324 326 325 323 321 317 318 318 317 318 318 318 318 318 318 318 318 318 318 317 317 317 317 317 318 318 318 318 318 318 317 317 316 316 316 316 316 316 316 316 316 317 318 319 319 320 320 320 319 317 316 317 319 320 323 325 325 325 327 328 328 326 325 324 323 322 320 318 318 317 316 314 313 313 309 305 304 304 304 304 304 304 305 306 307 307 307 307 307 307
318 323 327 326 328 328 328 324 321 322 321 319 317 317 316 317 317 317 318 318 318 318 318 317 317 317 317 316 316 317 317 317 318 318 318 318 317 317 316 316 315 316 316 316 316 316 316 316 316 316 317 318 319 319 320 320 318 317 316 317 318 320 322 323 324 326 328 327 327 326 325 323 321 318 316 314 314 313 313 312 311 307 304 304 304 304 304 304 305 307 307 307 307 307 307 307 307
319 328 327 325 329 327 326 323 317 319 319 318 317 316 316 316 316 316 317 317 318 317 317 317 317 317 317 316 316 317 318 318 318 318 318 318 318 317 317 316 316 316 315 315 316 316 316 316 316 316 316 317 317 318 319 320 320 318 317 316 316 317 319 321 322 324 326 326 325 325 324 322 321 319 315 313 313 312 311 310 308 306 304 304 304 304 304 305 306 307 307 307 307 307 307 307 307
321 327 326 329 333 325 321 319 316 317 317 317 317 317 317 317 316 316 316 316 316 317 317 317 317 317 316 316 316 316 317 317 318 318 318 318 318 318 317 317 317 316 316 315 315 315 316 316 316 315 316 316 316 317 318 318 319 319 318 317 316 316 317 318 319 321 323 324 323 322 321 321 321 318 315 313 313 311 309 309 307 304 304 304 304 304 305 306 307 307 307 307 307 307 307 307 307
321 322 325 332 329 320 319 318 318 317 316 317 317 318 317 317 317 316 315 315 316 317 317 317 317 316 316 316 316 316 317 317 318 318 318 318 318 318 317 317 317 317 316 316 315 315 315 316 316 316 316 316 316 316 317 317 318 319 319 317 316 315 315 316 317 317 319 320 320 320 319 320 319 316 313 312 312 310 309 307 307 304 304 304 304 304 305 306 307 307 307 307 307 307 307 306 306
321 321 327 328 321 318 320 319 319 318 317 318 317 318 317 317 317 316 316 315 316 316 316 316 316 316 316 316 316 317 317 317 317 317 317 317 317 317 317 317 316 315 315 315 315 315 315 315 315 315 315 316 316 316 316 317 317 318 318 318 317 316 315 315 314 315 316 316 317 317 317 318 318 315 312 311 310 309 308 307 306 304 304 305 305 305 306 307 307 307 307 307 307 307 306 306 306
320 321 322 321 318 319 320 318 318 317 317 317 317 317 317 317 317 316 316 315 316 315 316 316 315 316 316 316 316 316 317 317 318 317 317 317 317 317 317 317 316 315 314 315 314 314 315 315 315 315 316 315 315 315 316 316 317 317 318 318 318 317 316 315 314 313 313 314 315 316 316 316 316 314 312 311 309 308 307 307 306 304 305 305 305 305 306 307 307 307 307 307 307 306 306 306 306
321 321 319 318 319 318 318 318 318 316 316 316 317 318 317 316 316 316 316 316 316 315 316 316 315 316 316 316 316 316 316 316 317 317 317 317 317 317 316 316 316 315 314 314 314 314 315 315 315 315 315 315 315 315 315 316 316 316 317 318 318 317 317 315 314 313 313 313 313 314 315 315 315 314 312 310 309 308 308 307 306 305 305 305 305 305 307 308 307 307 306 307 307 306 306 306 306
320 321 319 319 319 317 318 318 317 316 316 316 317 317 316 316 317 317 316 316 316 316 316 316 316 316 316 316 316 316 316 316 317 317 317 317 316 316 316 316 315 315 314 313 314 313 314 314 314 315 315 315 315 315 315 315 315 316 316 317 318 318 317 317 315 314 313 313 313 313 313 314 315 314 312 311 310 308 308 308 306 305 305 305 305 305 306 307 307 307 307 307 307 307 306 306 306
317 318 317 317 318 317 317 316 316 316 316 316 315 315 315 316 316 316 316 316 316 316 316 316 316 316 316 316 316 316 316 316 316 316 316 316 316 316 316 316 316 315 315 314 314 314 314 314 314 314 315 315 315 315 315 315 315 316 316 316 317 317 318 317 317 316 315 314 313 312 313 313 314 313 312 312 311 309 308 308 307 305 305 305 305 305 306 307 307 307 307 307 307 307 307 307 307
316 315 315 314 315 315 315 315 316 316 315 315 314 313 314 314 316 316 316 316 316 316 316 316 316 316 316 316 316 316 316 316 316 316 316 315 316 316 316 316 316 316 315 315 315 315 314 314 315 314 314 314 315 315 315 315 315 315 315 316 316 316 317 317 318 318 317 316 315 313 313 312 312 313 313 312 312 311 309 308 308 306 305 305 306 306 306 307 307 307 307 307 307 307 307 307 307
315 314 314 314 314 314 315 315 315 315 314 314 313 313 313 314 315 316 316 316 316 316 316 316 316 316 316 316 317 316 316 316 316 316 316 315 315 315 316 316 316 316 315 315 315 315 315 315 315 315 314 314 315 315 315 315 315 315 316 316 316 317 317 317 318 318 318 317 316 315 314 313 313 313 312 313 312 312 311 309 308 306 305 305 306 305 306 307 307 307 307 307 307 306 306 306 307
315 314 314 314 314 314 315 314 314 314 313 314 314 313 313 314 315 316 316 317 316 316 316 316 316 316 316 316 316 316 316 316 316 316 316 315 315 315 315 316 316 316 315 316 315 315 315 315 315 315 315 315 315 315 315 315 315 315 316 317 317 318 318 318 318 318 318 318 317 317 316 314 314 314 313 312 312 312 312 311 309 307 306 305 305 305 305 306 307 306 306 306 306 306 305 306 306
314 314 315 315 314 314 314 313 314 313 313 314 313 314 316 316 316 316 316 317 316 316 316 316 317 317 317 316 316 316 316 316 315 315 315 315 315 315 315 316 316 316 316 316 316 316 316 316 316 316 316 316 315 315 316 316 316 316 317 318 319 320 321 321 320 319 318 318 318 318 317 317 316 315 314 313 313 312 312 312 310 308 306 305 305 305 304 305 306 306 306 306 306 306 305 306 306
315 314 314 316 315 316 315 313 315 314 313 315 314 317 320 318 315 316 317 317 316 316 317 317 318 318 317 316 316 316 315 315 315 314 315 315 315 315 315 316 316 316 317 317 317 317 317 317 317 317 317 317 317 316 317 317 318 318 318 319 320 321 322 322 322 322 321 320 320 319 319 318 318 318 316 315 314 313 312 312 311 309 307 306 305 304 304 304 305 306 306 306 306 306 305 306 306
314 313 315 316 315 319 318 313 315 315 313 314 314 317 321 319 316 316 317 317 317 317 317 318 318 317 317 316 315 315 314 314 315 315 315 314 315 315 316 316 316 316 317 317 317 316 316 316 317 317 317 317 317 317 318 318 318 319 319 320 321 322 322 323 324 323 323 323 322 322 321 321 321 320 319 317 316 315 313 312 312 310 308 307 306 304 304 303 304 305 305 306 306 305 305 305 305
315 314 321 321 316 320 320 314 315 316 315 313 314 318 319 317 315 316 317 317 317 317 317 317 316 316 315 315 314 314 314 314 315 315 314 314 314 314 315 315 315 315 315 315 314 314 314 315 316 317 317 318 319 319 319 319 320 320 321 321 322 322 323 324 324 324 324 324 324 324 324 323 322 321 320 319 318 317 315 313 312 312 310 308 307 305 304 303 303 304 304 305 305 305 305 305 305
319 315 321 323 318 318 320 317 315 314 315 313 313 317 318 316 315 316 317 316 316 316 316 316 316 316 315 314 314 314 314 314 314 314 313 313 313 314 314 314 314 313 313 313 313 313 313 315 317 317 318 318 319 320 320 320 321 321 321 322 322 323 324 324 325 325 325 325 325 324 324 324 323 322 321 320 319 318 317 315 313 313 311 309 308 306 305 303 303 303 303 304 305 305 305 305 305
322 319 318 321 320 318 320 322 317 314 316 316 315 315 315 316 315 315 316 316 316 314 314 315 315 315 314 313 313 312 312 312 312 312 312 312 312 313 313 313 313 313 312 313 312 312 313 315 316 317 317 318 319 320 321 321 322 322 322 322 322 323 324 324 324 324 324 324 324 324 324 323 322 322 321 320 320 319 318 317 315 314 312 310 308 307 305 304 302 302 302 302 303 304 304 304 304
323 322 320 321 320 319 320 320 319 317 318 318 318 317 316 316 315 314 316 316 315 314 314 315 315 314 313 313 311 310 310 310 309 309 310 311 311 312 312 312 312 312 312 312 312 312 313 314 315 316 316 317 317 318 320 322 322 322 323 322 322 322 323 323 323 323 323 323 323 323 323 322 322 321 321 320 320 319 318 317 316 315 313 311 309 307 306 304 303 302 302 301 302 303 304 304 303
320 321 320 320 320 320 319 318 318 318 318 319 318 318 317 318 317 315 315 316 314 314 314 314 314 313 312 311 309 308 308 307 307 308 309 309 310 310 310 310 310 310 311 311 311 312 312 312 313 313 312 313 313 315 318 320 321 322 322 322 321 321 322 322 322 322 322 322 322 322 322 321 321 321 320 320 319 319 318 317 317 316 314 313 310 308 306 305 304 303 302 301 301 301 302 303 302
316 317 318 320 321 320 318 318 319 316 316 320 319 318 318 318 317 315 314 315 314 313 313 313 313 312 311 310 308 307 306 306 307 308 308 309 309 309 309 309 309 309 310 310 310 311 311 311 310 310 309 309 311 313 314 316 318 319 320 320 320 321 321 321 321 321 321 320 320 320 320 320 320 320 320 319 319 318 318 317 316 316 315 313 311 309 307 306 305 303 302 301 300 300 301 302 302
316 318 319 322 322 320 317 317 318 315 316 322 321 318 318 317 316 315 314 314 313 313 312 312 312 310 309 308 307 306 306 306 307 308 308 308 308 308 308 308 309 309 309 309 309 310 310 309 309 308 308 309 310 311 311 311 313 314 315 316 316 317 317 317 317 318 318 319 319 319 319 319 318 318 318 318 318 317 317 317 316 316 315 314 312 310 308 306 305 304 302 301 300 300 300 300 301
319 320 320 321 321 320 321 321 318 315 316 322 322 318 317 317 316 315 314 313 312 312 312 311 310 309 308 307 306 306 306 306 307 307 307 308 308 308 308 308 308 308 308 308 308 308 308 308 308 307 308 308 309 309 309 309 310 311 312 312 312 312 313 313 313 313 313 313 314 315 315 316 316 316 316 316 316 316 316 316 315 315 314 314 312 311 309 307 306 304 303 301 300 300 299 299 300
322 321 320 322 320 319 323 323 319 317 317 319 319 318 318 317 317 316 313 312 311 311 311 310 309 308 307 306 306 306 306 306 306 306 307 307 307 307 307 307 307 307 307 307 307 307 307 307 307 307 307 307 308 308 307 307 308 309 310 311 311 311 311 311 310 309 308 308 309 309 310 310 311 311 312 313 313 313 314 314 314 314 314 313 313 312 311 309 308 306 304 302 301 300 299 299 299
326 324 321 322 320 319 321 321 319 319 321 322 318 320 324 320 317 317 313 310 311 310 309 309 308 307 306 305 305 305 305 305 306 306 306 307 307 307 307 307 308 308 308 307 307 307 307 308 308 308 308 308 308 308 308 307 307 307 307 308 308 308 308 308 308 307 307 307 306 306 306 306 306 307 307 308 309 309 310 311 312 312 312 312 312 311 311 310 309 308 306 304 302 300 299 299 299
325 326 323 321 321 321 321 322 322 321 324 323 317 322 329 325 319 320 315 311 310 309 308 308 307 306 305 305 304 304 304 305 305 305 306 306 307 307 307 307 308 308 307 307 307 308 308 308 308 308 308 309 308 308 308 308 308 307 307 307 306 306 306 306 306 306 306 306 306 305 305 304 304 304 304 304 305 305 306 307 308 309 310 310 311 310 310 310 309 308 307 304 302 301 300 299 298
322 325 324 322 321 320 321 321 320 323 324 320 316 320 325 322 320 321 316 312 311 309 307 307 306 305 305 304 303 303 303 303 303 304 305 306 306 307 307 307 307 307 307 307 308 308 308 308 308 308 308 308 308 308 308 308 308 308 307 307 306 306 306 305 305 305 305 305 305 305 304 304 304 303 303 303 303 303 303 304 304 306 307 308 308 309 309 309 308 308 307 305 303 302 300 299 298
325 324 321 321 320 319 320 317 318 323 321 318 317 317 318 319 321 319 316 313 311 309 307 306 305 304 304 303 302 302 302 302 303 302 303 304 305 306 306 306 306 306 307 307 307 307 307 307 307 307 307 307 307 308 307 308 308 308 307 307 307 306 306 305 305 305 305 305 305 304 304 304 304 303 303 303 302 302 302 302 302 303 304 304 305 306 307 307 307 307 306 305 303 302 300 299 298
326 322 317 318 317 317 318 316 318 320 318 319 320 316 317 323 325 318 314 314 311 309 308 306 304 304 303 302 301 301 301 302 303 303 302 303 304 305 305 306 306 306 306 306 306 306 306 306 306 306 306 306 306 306 306 307 307 307 307 307 307 306 306 306 305 305 305 304 304 304 304 304 303 303 303 302 302 302 301 301 301 301 301 302 303 303 304 305 306 306 306 305 303 302 301 299 298
320 317 317 321 318 317 317 315 317 318 317 320 321 318 318 324 330 322 314 315 313 309 307 305 304 303 302 302 301 301 301 302 303 303 303 303 303 304 305 305 306 305 305 306 306 306 305 305 305 305 305 305 305 305 306 306 306 306 307 307 306 306 306 306 305 305 305 304 304 304 304 304 303 303 303 302 302 302 301 301 301 301 301 301 301 301 302 303 303 304 304 304 304 303 301 300 299
314 317 321 323 321 320 318 318 319 317 319 323 321 320 317 321 332 324 315 315 312 308 306 304 303 302 301 301 300 300 301 301 302 303 303 304 304 304 305 305 305 305 305 305 305 305 305 305 304 304 304 304 304 304 305 305 305 305 305 305 305 305 305 305 305 305 304 304 304 304 304 303 303 303 303 302 302 301 301 301 301 301 300 300 300 300 300 300 301 302 303 303 303 303 302 300 299
315 322 321 320 323 323 319 320 321 318 323 328 323 320 316 320 327 319 311 313 311 308 306 304 302 301 300 300 300 300 301 302 303 303 304 304 304 304 304 304 304 304 304 304 303 303 304 303 303 303 303 303 303 303 304 304 304 304 304 304 304 304 304 303 303 303 303 303 303 303 303 303 303 303 303 303 302 302 302 301 301 301 300 300 299 299 299 300 300 300 300 301 302 302 302 300 299
317 321 318 317 322 324 322 322 321 320 325 326 322 319 318 321 321 313 309 309 308 307 305 302 301 300 299 299 299 300 301 303 303 303 303 303 303 303 303 303 302 302 302 302 302 302 302 302 302 302 302 302 302 302 303 303 303 303 303 302 302 302 302 301 301 301 301 301 301 301 302 302 302 303 303 302 302 302 302 302 301 301 300 300 299 299 299 299 299 299 299 299 300 300 300 300 300
315 318 319 319 322 322 323 323 319 319 322 322 317 316 320 323 316 308 305 304 303 303 302 301 301 299 299 298 299 300 301 302 302 302 302 302 302 302 301 302 301 301 301 301 301 301 301 301 301 301 300 300 301 301 301 301 301 301 301 301 301 300 300 300 299 299 299 299 299 300 300 300 301 301 302 302 302 302 302 302 302 302 301 300 299 299 299 298 298 298 298 298 299 299 299 299 299
315 318 321 321 324 321 319 319 318 319 324 322 317 316 323 324 313 304 303 302 301 301 301 300 300 298 299 298 299 301 301 301 301 301 301 301 301 301 300 301 300 300 300 300 300 300 300 299 299 299 299 299 299 299 299 299 299 299 299 299 299 299 299 299 298 298 297 297 297 298 298 298 299 299 299 300 300 301 301 301 302 302 302 301 300 300 299 299 298 298 298 298 298 298 298 298 298
316 317 318 320 324 322 318 318 319 320 322 320 319 320 320 315 308 303 302 301 300 301 300 299 299 298 298 298 299 300 301 301 301 301 301 300 300 299 299 299 299 299 299 299 299 298 298 297 297 297 297 297 297 297 297 297 297 297 297 297 297 297 297 297 297 297 297 297 296 296 296 296 297 297 297 298 298 298 299 300 300 301 301 301 301 301 301 300 299 298 298 298 298 298 298 298 298
319 315 320 324 322 319 319 321 320 317 318 318 317 319 314 309 307 304 302 302 301 300 300 299 299 298 298 299 300 300 300 300 300 300 300 299 299 299 299 298 298 298 298 297 297 296 296 296 295 295 295 295 295 295 294 294 294 295 295 295 295 295 295 295 295 295 296 296 295 295 295 295 295 295 295 295 296 296 297 297 298 298 299 300 301 301 301 301 300 299 299 298 298 298 297 297 297
320 318 320 321 318 316 318 320 320 318 318 317 316 317 315 313 312 306 303 304 303 301 300 299 299 299 298 299 300 300 300 300 299 299 299 298 298 298 298 298 297 297 296 295 295 294 293 293 293 293 293 293 293 292 292 292 292 293 293 293 293 293 293 293 293 293 293 293 293 294 294 294 294 293 293 293 293 294 294 295 295 296 296 297 298 299 300 301 301 301 300 300 299 298 297 297 297
315 317 317 316 317 319 319 319 319 318 317 317 318 317 316 316 315 309 305 305 304 302 301 300 299 299 298 299 299 299 299 299 299 298 298 298 298 298 298 297 297 296 294 293 292 291 291 291 291 291 291 291 291 291 291 291 291 291 291 291 291 291 291 291 291 291 291 291 291 291 291 292 292 292 292 292 291 291 292 292 292 293 294 294 295 296 297 298 299 300 301 301 300 299 298 298 297
312 314 315 317 317 318 319 317 318 319 317 317 317 317 319 320 317 311 306 304 303 303 303 302 300 299 300 300 300 300 299 299 298 298 297 297 297 297 296 295 294 293 292 291 290 290 290 290 290 289 289 289 289 290 290 290 290 290 290 290 290 290 290 289 290 289 289 290 289 290 290 290 290 290 290 290 290 290 290 290 290 290 291 291 292 292 293 294 295 297 298 299 300 300 299 299 298
314 316 316 316 315 316 317 315 315 318 317 317 316 316 321 321 313 309 306 304 303 303 304 303 301 300 301 301 300 300 299 298 298 297 297 296 295 295 293 292 291 290 290 290 290 290 290 289 289 289 289 289 289 289 289 289 289 289 289 289 289 289 289 289 289 289 289 289 289 289 289 289 289 289 289 289 289 289 289 289 289 289 289 289 289 290 290 291 291 292 294 295 297 298 299 299 299
315 318 319 318 317 316 316 315 315 316 315 315 315 314 318 316 309 307 305 304 303 302 302 303 301 301 301 301 300 300 298 298 297 296 295 294 293 292 291 291 290 290 290 290 290 290 289 289 289 289 289 289 289 289 289 289 289 289 289 288 288 288 288 288 288 288 289 289 289 289 289 289 289 289 288 288 288 288 288 288 288 288 288 288 288 288 288 289 289 289 290 291 293 294 296 298 298
Wind_Speed
9 8 9 8 7 4 5 7 3 2 3 0 4 0 2 2 2 3 3 2 2 1 3 1 2 3 2 1 3 4 5 6 5 3 2 4 3 1 2 3 2 2 2 5 10 12 14 16 17 16 16 15 15 15 15 16 15 15 16 16 15 14 12 11 10 9 9 8 7 6 5 4 3 4 4 4 5 6 7 8 8 8 7 7 7 7 8 7 5 3 2 2 2 2 2 2 2
8 6 6 6 4 4 4 5 2 2 4 2 4 1 2 3 4 3 4 3 2 1 3 3 1 3 3 3 4 3 5 5 5 3 4 5 2 1 2 3 3 3 2 4 9 12 13 15 17 17 16 16 16 16 16 16 16 16 16 17 16 14 13 11 9 8 8 7 6 5 4 4 4 5 5 6 6 6 7 9 9 8 8 7 7 7 7 7 5 2 1 2 2 2 3 3 3
5 4 4 2 2 5 5 3 2 1 4 1 4 3 2 4 3 3 6 4 3 0 3 2 2 2 1 2 2 1 1 1 3 3 3 4 2 2 2 3 4 4 4 4 8 11 13 15 16 17 17 16 16 16 17 17 17 17 17 17 16 15 13 11 10 9 8 8 7 6 5 6 6 6 6 7 7 7 8 9 9 9 8 8 7 7 7 6 4 2 2 3 3 3 4 5 5
3 2 3 2 3 4 3 3 2 3 1 1 1 4 2 4 2 3 4 2 2 1 2 1 1 1 1 2 2 3 3 1 1 1 1 2 1 2 3 3 5 6 5 5 7 11 13 14 16 16 17 17 16 16 17 18 17 18 18 18 17 16 14 12 11 10 10 10 9 8 7 7 7 7 7 8 8 8 9 10 10 9 8 8 7 8 8 6 5 5 5 6 6 5 5 5 6
1 2 2 2 3 1 1 2 0 3 2 3 3 3 1 4 2 1 2 2 2 1 1 1 1 2 3 5 4 2 1 1 1 3 4 2 1 2 3 4 6 6 6 6 7 10 13 14 16 16 17 17 16 16 17 17 17 18 19 19 18 17 15 13 12 12 12 11 10 9 9 9 9 9 9 9 10 10 10 10 10 10 9 8 9 10 9 8 9 10 9 8 8 7 7 7 8
1 4 4 3 2 1 1 1 1 1 5 4 3 4 1 3 3 3 6 3 3 1 1 1 1 2 4 6 5 4 2 2 3 5 6 5 3 2 4 5 6 6 7 7 8 9 12 14 16 17 17 17 17 16 16 17 17 18 19 19 19 18 16 15 14 13 13 12 11 10 11 11 11 11 11 12 12 11 9 9 9 9 9 10 10 11 11 11 12 13 11 9 9 9 9 9 9
4 5 5 3 1 1 2 1 3 3 5 5 5 3 1 3 5 4 6 3 2 1 1 2 1 2 3 3 4 6 6 6 5 5 5 4 3 3 4 6 7 7 8 8 9 9 11 14 16 17 18 18 18 17 17 17 17 18 19 19 20 19 17 16 15 14 13 13 12 12 13 13 13 13 14 14 13 11 9 8 8 8 9 10 11 13 13 14 15 15 12 10 10 10 10 10 11
6 5 4 2 2 2 2 1 4 3 4 4 5 4 4 5 6 3 2 2 2 2 3 4 1 1 2 3 3 5 8 8 5 3 3 3 2 3 4 6 7 8 8 9 10 10 11 14 15 17 18 19 19 18 18 18 18 18 18 19 20 19 18 17 15 15 14 14 14 14 14 15 15 15 16 16 14 11 9 9 8 8 9 11 13 15 16 16 17 17 14 10 10 10 9 10 11
6 4 2 2 2 2 2 3 4 3 4 3 2 6 8 7 5 3 1 3 3 2 3 5 3 1 3 5 7 8 8 9 4 3 2 2 3 3 4 5 7 8 9 10 11 11 11 13 15 17 18 19 19 19 19 19 19 19 19 19 19 19 19 18 16 15 15 14 14 15 15 15 16 17 17 16 14 12 10 10 10 11 11 13 15 17 18 18 19 18 14 10 9 8 7 8 10
5 2 1 2 2 3 4 3 3 3 4 3 2 6 9 7 4 3 1 4 4 2 3 6 5 4 4 6 9 8 7 9 5 4 2 2 4 4 4 4 6 7 9 11 11 11 11 13 14 16 18 19 20 20 20 20 20 19 20 20 19 19 19 18 17 16 16 15 14 15 16 16 17 18 17 16 15 13 11 11 13 13 14 16 17 18 18 17 16 14 11 9 7 6 6 7 7
4 2 1 3 3 2 3 4 4 5 6 3 3 6 7 6 4 3 3 4 6 3 3 6 3 4 4 5 8 8 8 10 6 5 4 3 4 5 5 5 6 6 8 11 12 12 12 13 14 16 17 19 20 21 21 21 21 20 20 20 20 20 19 19 18 17 16 15 15 16 17 17 18 18 18 17 15 14 13 13 14 15 16 16 15 16 15 13 13 10 9 7 5 5 5 6 6
3 2 2 2 0 2 3 4 6 6 7 4 2 3 5 6 4 2 4 3 7 8 2 4 0 2 2 3 6 8 9 11 8 7 6 5 4 6 7 7 7 7 8 10 12 12 13 14 15 16 17 19 20 21 22 22 21 21 21 20 20 20 19 19 18 18 17 16 16 17 17 18 19 19 19 17 16 15 14 14 14 15 16 15 13 14 13 12 11 9 7 6 5 5 6 6 6
3 2 4 1 2 2 3 4 5 5 6 2 1 2 4 4 3 1 3 4 8 8 1 3 2 3 3 6 9 11 11 12 11 8 8 8 6 6 8 9 8 7 8 10 11 12 13 14 15 16 17 19 20 21 22 23 23 22 21 21 20 20 20 19 19 18 18 17 17 18 18 19 20 21 20 18 17 17 16 15 14 15 15 13 13 13 12 11 10 8 7 6 6 6 6 6 6
4 4 3 1 2 2 2 3 3 2 3 4 2 3 3 1 1 3 4 5 9 5 1 3 6 5 5 7 8 9 7 8 10 10 11 10 10 10 11 10 9 8 9 10 10 11 12 14 15 16 18 19 20 21 22 23 23 23 22 21 21 21 21 20 20 19 19 18 18 19 19 20 21 21 21 20 19 18 17 15 13 14 14 13 12 13 12 11 10 9 8 7 7 7 7 6 6
4 5 3 1 4 4 2 3 3 2 3 5 3 3 1 2 3 5 5 4 7 7 7 9 6 4 4 4 6 9 10 9 9 11 12 12 13 15 15 13 11 10 10 11 12 12 12 14 15 17 18 19 20 21 22 23 24 24 23 23 23 23 23 22 21 20 20 19 19 20 20 20 21 22 22 22 21 20 18 15 13 14 14 12 12 13 12 11 10 10 9 9 8 8 7 7 7
3 3 4 2 2 2 2 2 0 2 4 4 3 2 2 3 4 3 5 6 9 10 12 11 8 9 11 13 15 17 18 16 12 13 14 16 17 18 19 15 13 12 12 13 13 13 14 14 16 17 18 19 20 22 22 23 24 25 24 24 24 24 24 23 23 22 21 21 21 21 21 21 21 22 23 22 21 20 18 15 14 15 14 13 12 13 12 12 11 10 10 10 9 9 8 8 7
1 2 4 1 2 1 3 2 3 1 5 5 2 3 2 3 7 6 5 7 12 14 16 16 14 15 18 21 21 21 22 20 18 18 18 19 19 18 18 16 15 15 14 15 15 16 16 16 17 17 18 19 21 22 23 23 24 25 25 25 25 25 25 25 24 23 22 22 22 22 22 22 22 23 23 22 21 20 18 16 14 15 15 13 13 13 13 12 12 11 11 10 9 9 8 8 8
2 3 3 1 3 3 4 2 4 2 3 7 8 7 5 3 9 11 6 7 12 15 19 21 19 20 20 22 23 23 24 23 23 22 21 20 19 18 18 18 18 17 16 16 17 18 19 19 18 18 19 20 21 22 23 24 24 26 26 26 26 26 26 26 25 25 24 24 23 24 23 23 23 23 23 22 21 20 18 16 15 16 16 14 14 14 13 12 12 12 11 10 10 9 8 7 7
4 3 2 3 5 4 6 7 9 7 5 8 8 8 6 6 11 13 6 8 11 12 19 23 24 26 22 19 19 18 18 20 23 23 23 22 20 20 20 20 21 20 19 18 17 19 20 20 20 19 19 19 21 23 24 24 24 26 26 27 27 27 27 27 27 27 26 26 26 25 24 24 24 24 23 23 22 20 18 16 16 16 17 15 15 15 14 13 13 12 11 11 10 9 8 8 7
6 4 2 6 6 6 12 14 14 15 12 9 8 8 10 12 13 12 8 10 10 9 16 20 24 30 26 20 19 20 18 16 18 20 22 22 22 22 22 23 24 23 21 19 17 17 19 20 21 21 19 20 22 23 24 24 25 25 26 27 27 27 28 28 28 28 28 28 27 26 26 25 25 24 23 23 22 22 20 18 17 17 18 17 16 16 15 14 14 13 11 11 10 9 9 9 8
5 7 4 7 6 5 13 15 17 21 16 11 12 11 12 15 14 11 10 9 7 12 20 22 26 33 31 26 24 24 23 19 18 20 21 22 24 24 24 24 23 21 20 19 18 17 18 19 20 20 20 21 22 23 23 24 24 25 26 27 28 28 29 29 29 30 30 29 29 28 27 27 26 24 23 23 23 22 21 19 19 19 19 18 17 17 16 15 15 13 12 12 10 10 10 9 9
4 7 11 11 7 5 12 16 17 19 17 14 13 10 11 14 15 14 10 7 11 20 26 26 29 33 33 31 28 25 24 24 23 22 22 23 24 25 25 24 22 20 19 20 18 16 16 16 18 19 20 22 22 23 23 24 25 25 25 26 27 28 29 30 30 31 31 30 30 29 29 28 27 25 24 24 24 23 22 20 20 20 20 19 18 18 17 16 15 13 13 13 12 11 11 10 10
6 6 11 16 15 10 13 18 20 20 16 13 11 13 14 12 16 17 11 16 25 31 31 29 30 30 31 32 30 28 26 25 25 23 23 23 23 23 23 22 21 20 19 19 18 17 16 15 15 17 19 21 22 23 23 24 25 25 25 26 27 27 28 29 30 31 31 31 31 30 30 30 28 27 26 25 25 24 23 21 21 21 21 21 20 19 19 18 17 15 15 15 13 13 12 11 11
8 5 7 14 17 14 15 19 20 19 15 15 15 17 15 8 13 16 14 26 33 31 28 27 26 25 26 27 26 24 23 22 22 21 21 23 23 22 21 21 20 19 19 18 17 17 17 15 14 16 18 20 21 22 24 25 26 26 26 27 28 27 27 28 28 28 29 31 32 31 31 31 30 29 27 26 26 24 23 22 22 22 23 22 21 21 20 19 18 17 17 17 15 14 13 13 12
6 5 5 7 10 12 16 18 21 22 23 25 19 17 19 16 17 18 22 32 30 24 23 22 21 20 19 21 21 20 19 19 19 20 21 24 25 23 22 21 21 21 21 19 16 16 16 15 14 15 17 18 20 22 24 25 26 26 27 28 28 28 29 28 27 26 27 29 31 32 32 32 31 30 28 27 26 25 24 23 23 23 24 24 22 22 22 20 19 19 18 18 16 15 14 14 14
3 4 7 8 11 15 17 19 24 27 28 26 15 14 22 20 16 16 24 27 23 23 24 23 21 21 19 20 22 21 20 19 20 22 22 24 25 25 24 22 22 22 21 20 19 18 17 17 16 16 15 16 18 21 24 25 26 27 28 28 28 28 29 28 28 27 27 27 29 31 32 33 33 32 30 28 27 26 25 24 24 24 25 25 24 23 22 22 21 20 20 19 18 16 16 15 15
6 9 11 13 14 18 20 20 30 31 26 25 13 11 23 20 6 9 23 23 22 26 27 26 24 24 24 23 24 23 22 22 22 24 25 25 24 25 25 23 23 21 20 20 21 20 20 20 20 18 17 16 16 18 21 23 25 27 28 29 29 29 29 29 29 29 29 28 27 28 29 30 31 32 31 29 28 27 26 25 25 25 26 26 25 24 23 23 22 21 21 20 19 17 17 17 16
10 11 10 15 16 19 23 20 29 25 15 22 14 8 19 13 4 14 26 24 23 28 28 26 24 23 23 22 22 21 21 24 26 27 28 26 23 23 24 23 22 20 19 19 18 19 20 21 20 20 19 18 18 18 18 20 23 25 28 29 30 30 30 30 30 30 30 30 29 28 28 28 27 29 29 29 29 28 27 26 25 26 27 27 25 24 24 24 23 22 22 22 21 19 19 19 18
13 11 5 11 10 12 22 19 24 18 7 14 8 2 10 5 9 21 23 23 22 23 23 25 25 26 25 22 22 23 24 25 23 22 21 19 19 18 18 19 20 18 17 17 16 18 19 20 20 21 21 20 20 19 19 19 21 24 27 29 30 31 31 32 32 31 31 30 30 29 28 28 27 27 28 28 28 28 28 27 25 25 27 27 26 25 25 25 24 24 24 24 23 22 22 21 20
11 8 0 6 6 6 18 16 16 12 5 10 10 2 7 7 15 21 19 21 20 20 23 28 31 32 29 26 28 27 22 16 11 10 9 9 10 10 11 13 15 15 16 15 15 15 15 16 18 20 21 21 20 20 20 20 21 23 25 27 29 31 32 32 32 32 31 31 30 30 30 30 29 29 28 28 28 28 29 29 26 25 26 26 26 26 26 26 26 25 26 26 26 25 24 23 21
5 5 0 2 2 5 14 11 6 3 3 12 12 3 7 7 14 17 17 19 20 24 28 31 32 30 29 29 26 17 10 11 10 8 6 4 2 1 4 6 7 9 10 11 10 10 10 11 13 16 19 20 20 19 19 19 20 21 23 26 28 29 30 31 32 32 32 31 31 31 31 31 30 30 29 29 29 28 29 29 28 26 25 26 26 26 26 27 27 27 27 28 27 26 25 24 23
2 2 3 2 3 4 12 12 6 3 3 7 7 2 5 7 13 15 16 20 22 24 28 32 30 29 30 25 15 9 11 12 10 9 8 6 6 5 4 4 4 5 5 6 6 6 6 7 8 11 14 17 18 18 18 18 19 20 21 24 26 27 28 29 30 31 31 31 31 31 31 30 30 30 31 31 30 30 29 29 29 28 27 26 26 26 27 27 28 28 29 29 29 28 27 26 25
2 3 4 4 4 3 5 9 6 3 3 1 3 3 4 5 10 15 18 23 25 23 28 30 28 30 26 14 12 13 13 12 11 11 9 7 6 4 3 2 2 3 4 6 6 4 2 2 4 7 10 13 14 15 17 17 18 19 20 22 23 25 27 28 28 29 29 29 30 30 30 30 30 30 31 31 31 31 30 30 30 30 29 28 28 27 27 28 28 29 30 30 30 29 28 27 27
4 2 3 4 5 3 3 7 8 2 3 3 3 4 6 6 10 19 22 23 26 24 22 23 26 26 12 11 16 18 18 17 16 14 11 9 7 5 4 3 3 3 4 5 6 5 2 1 2 3 5 8 10 12 14 15 17 18 19 19 21 22 24 25 26 27 27 28 28 29 29 30 30 30 30 31 31 31 31 31 31 31 31 31 30 30 29 29 30 31 31 31 31 30 30 29 28
4 4 3 4 4 4 5 5 5 4 4 5 6 6 8 8 11 19 25 24 22 19 18 22 22 10 11 18 21 23 23 22 20 16 12 10 8 7 6 4 4 3 2 2 3 4 5 5 4 4 4 5 6 8 10 12 14 16 17 17 18 20 21 22 23 24 25 25 26 27 28 29 29 29 29 30 30 31 31 31 31 32 33 33 33 33 32 32 31 31 32 32 32 32 31 30 30
7 6 4 4 5 5 6 6 5 5 5 6 7 7 6 8 9 14 27 26 18 19 20 15 6 15 21 23 25 25 25 25 20 15 14 11 9 8 5 4 3 1 3 3 4 4 6 6 5 5 4 3 2 3 5 7 10 12 14 14 15 17 18 19 20 21 22 23 25 26 27 27 27 27 28 28 29 29 30 30 31 32 34 35 35 36 35 34 33 32 33 33 33 33 33 32 32
6 5 4 5 5 6 5 6 7 3 2 6 6 4 5 8 9 15 28 24 15 18 11 8 18 23 23 24 25 25 26 24 20 18 17 15 14 12 9 8 7 6 7 7 6 6 5 4 4 6 6 5 5 4 1 1 4 7 9 10 12 13 15 16 17 18 20 21 22 24 25 25 25 26 26 27 27 28 29 29 30 31 33 35 36 37 36 35 34 33 34 34 34 35 35 35 34
5 5 4 5 5 6 5 6 7 3 2 5 4 6 7 9 10 18 24 16 11 8 6 17 21 23 23 24 24 25 25 22 21 21 20 20 20 19 17 16 15 13 13 11 9 9 8 8 9 10 9 8 8 7 6 5 2 1 4 6 7 9 10 11 13 14 16 18 19 21 22 23 23 24 24 25 26 26 27 28 29 30 32 34 36 37 36 36 35 35 35 35 35 36 37 37 37
5 4 2 4 4 3 6 6 4 3 1 5 6 6 8 10 12 18 17 7 8 11 17 19 21 24 22 23 24 24 25 24 25 25 25 25 25 25 26 26 25 23 22 20 18 17 16 17 17 15 13 12 11 9 8 7 5 3 1 1 2 3 4 6 7 8 10 11 14 16 18 20 21 22 22 23 24 24 25 26 27 29 31 33 35 36 37 37 36 36 36 36 36 37 38 38 39
5 4 2 5 4 1 4 5 5 4 2 3 4 6 5 7 12 12 7 11 16 21 25 24 25 26 24 24 24 25 27 27 28 28 28 28 28 30 31 31 31 30 30 29 28 27 27 27 25 24 22 20 18 16 13 11 8 5 2 0 1 2 2 3 4 4 5 5 7 9 11 13 15 16 17 19 20 22 23 24 25 27 29 31 33 35 36 37 37 37 36 37 37 38 39 40 41
4 4 5 5 4 4 6 4 4 5 5 2 3 5 4 6 10 8 6 14 15 19 24 25 24 25 26 26 26 27 28 29 30 31 31 31 32 33 34 35 35 36 36 35 34 33 33 32 31 30 29 28 26 24 21 18 15 12 8 5 3 2 1 1 1 2 3 4 4 4 5 6 7 8 10 13 15 16 18 20 22 25 27 29 32 34 35 35 36 36 37 37 38 39 40 41 42
4 4 8 8 7 7 5 3 5 4 5 4 4 4 6 5 7 7 2 8 8 11 16 18 20 22 25 26 26 27 28 29 31 32 33 34 34 34 35 35 36 37 37 35 34 34 33 32 31 30 30 29 28 27 25 23 22 19 17 14 11 9 6 5 4 4 5 5 6 7 7 6 5 5 5 7 8 10 11 14 17 20 23 27 29 32 33 34 35 35 36 37 38 39 39 41 43
3 5 6 6 6 4 2 2 3 1 3 4 2 1 6 4 5 8 3 8 6 8 10 13 17 20 23 24 23 25 27 29 30 31 32 33 34 34 34 34 35 35 34 32 30 30 29 29 28 27 27 27 26 25 24 23 23 22 21 19 17 15 12 9 6 5 6 7 7 7 8 9 8 7 6 5 5 6 7 9 12 15 18 22 25 29 31 32 33 34 35 36 37 38 39 42 44
4 5 3 5 3 2 2 2 1 3 2 5 2 4 4 4 6 7 5 10 6 6 7 9 15 19 22 22 22 23 25 28 30 30 29 31 32 33 33 32 31 30 28 26 26 25 25 25 25 24 24 25 24 23 22 21 21 21 20 20 19 18 16 14 10 7 7 8 8 8 9 10 11 11 11 9 7 6 6 6 8 10 13 16 20 24 27 29 30 32 33 35 36 37 39 42 43
6 5 4 5 4 4 3 2 2 2 2 5 5 5 3 5 6 3 7 9 5 6 6 6 11 17 20 21 21 22 24 28 30 29 29 29 30 30 29 28 26 25 24 23 23 22 22 22 22 22 23 23 22 21 20 20 20 19 19 19 19 19 18 17 15 13 11 10 10 10 10 10 11 12 12 12 12 10 9 7 6 7 10 12 15 19 22 25 28 30 32 33 35 36 38 40 42
4 2 4 4 2 1 1 1 1 2 2 4 6 5 3 5 6 1 5 5 5 6 5 6 11 16 18 19 19 20 23 27 28 28 28 26 26 26 25 23 22 21 21 20 20 19 20 20 20 21 22 21 20 19 19 18 18 17 17 18 18 18 18 18 17 17 16 15 13 12 11 11 11 11 12 12 12 13 12 11 10 8 8 9 11 15 18 21 24 27 29 31 33 35 36 38 41
3 5 5 6 5 3 2 1 3 3 2 6 8 8 6 4 5 2 2 4 9 9 6 7 10 15 17 17 18 19 22 25 26 26 25 23 22 21 19 19 19 18 17 16 17 18 18 19 19 20 20 19 19 18 17 17 17 17 17 17 17 17 17 17 17 17 17 17 16 14 13 11 10 10 11 11 11 12 12 12 12 11 10 10 10 11 13 16 19 22 25 28 31 33 34 36 39
5 5 4 4 5 4 5 4 3 2 5 7 7 7 7 5 4 2 3 1 8 10 9 9 10 14 16 16 18 20 22 24 23 23 21 19 18 16 16 17 16 15 14 15 17 17 17 18 17 18 18 18 17 16 16 16 16 17 17 17 17 17 17 17 17 18 17 17 17 16 14 12 11 10 10 10 10 11 12 12 12 12 12 12 11 11 12 13 15 17 21 24 28 31 33 35 37
5 4 4 2 4 3 2 2 0 2 6 6 3 2 4 6 3 3 6 6 6 8 11 13 15 16 17 17 19 20 22 21 20 19 17 16 15 15 15 15 14 14 14 15 16 16 16 16 16 17 17 16 15 15 14 14 14 16 16 16 16 16 16 16 17 17 17 17 17 16 15 15 14 12 12 11 11 11 12 12 12 11 11 12 12 12 12 12 13 15 17 20 24 27 30 33 36
4 4 4 3 1 0 3 3 2 3 5 4 2 1 1 5 2 4 4 5 10 16 18 18 19 20 19 19 19 20 20 18 17 16 15 15 14 14 13 13 13 13 13 14 14 15 15 15 15 15 15 14 14 13 13 13 14 14 14 14 15 15 16 16 17 17 17 16 16 16 16 16 15 15 14 14 13 13 12 12 12 12 11 12 13 13 13 12 13 14 16 18 20 23 25 29 33
5 5 5 5 4 3 4 3 3 4 4 4 3 1 2 3 0 3 4 8 15 20 21 21 20 19 18 19 19 19 17 16 15 14 13 13 12 11 11 11 11 11 12 12 13 13 13 13 14 13 14 13 13 12 12 13 13 13 12 12 13 14 15 15 16 17 17 17 16 15 15 15 15 15 15 15 15 15 15 14 13 13 12 12 13 14 14 13 13 14 16 17 19 20 22 25 28
2 4 4 2 4 4 2 3 4 3 3 4 2 2 2 2 2 4 6 9 13 16 18 19 17 16 17 17 17 16 15 13 12 12 11 11 9 9 9 9 10 10 10 10 11 12 12 13 13 12 13 12 12 12 13 13 13 12 12 12 11 11 12 12 13 15 16 17 17 16 16 15 15 15 15 15 15 16 16 16 15 15 14 14 14 14 15 15 15 16 16 18 19 19 21 23 25
0 3 3 4 4 5 1 4 2 1 3 4 3 2 1 2 1 2 5 6 8 9 11 13 14 15 16 16 15 14 12 11 10 9 9 8 7 7 7 8 9 8 8 9 10 11 11 11 11 12 12 11 12 12 12 12 11 11 11 11 11 11 11 11 12 12 13 14 16 16 17 17 17 17 17 17 17 16 16 16 16 16 16 16 15 15 16 16 16 17 17 18 19 19 21 23 23
3 2 4 3 1 3 2 1 2 1 4 4 3 5 4 2 2 1 3 4 5 4 5 9 10 12 13 13 13 11 10 9 8 7 6 6 6 6 6 7 7 7 7 8 10 11 11 11 11 11 11 12 12 12 11 11 11 10 10 10 10 10 10 11 11 11 12 12 13 14 16 17 18 19 19 19 19 18 18 17 17 16 16 16 16 16 17 17 17 18 18 19 20 20 22 23 23
4 3 2 1 1 2 0 1 2 3 4 4 5 7 5 4 4 5 6 7 7 6 5 6 7 10 12 12 11 9 8 7 6 5 5 4 4 4 4 4 5 6 7 8 10 10 11 11 12 12 12 12 12 11 11 10 10 10 10 10 9 9 9 9 10 10 11 12 13 13 14 15 16 17 19 21 21 21 20 20 19 19 18 18 18 18 18 18 19 19 19 19 20 20 22 24 23
3 2 2 1 3 3 2 2 3 3 4 4 5 5 4 4 5 8 10 10 10 9 7 6 9 13 12 11 9 7 6 6 5 4 3 3 3 3 3 5 6 7 8 9 10 11 12 12 13 13 13 13 14 14 13 12 12 11 11 10 10 10 10 9 9 10 10 11 12 13 14 15 16 17 18 20 21 22 23 22 21 21 21 21 21 20 20 20 20 21 21 21 21 21 22 23 23
2 1 1 2 1 1 2 2 2 3 3 3 4 5 4 4 2 7 11 11 10 10 7 7 12 15 13 10 9 7 6 6 4 4 3 3 4 5 6 6 8 9 9 10 10 11 12 12 13 14 15 15 16 16 17 17 17 17 17 16 16 15 15 14 14 14 14 13 14 14 14 15 16 17 19 20 21 23 24 24 24 23 23 23 23 23 23 23 23 23 22 22 23 23 24 24 24
3 2 3 3 2 1 2 4 2 3 3 3 4 5 5 4 1 4 9 8 8 11 11 10 15 18 13 10 9 8 7 7 6 5 4 4 5 6 7 7 8 9 9 9 10 11 12 13 14 15 16 16 16 16 17 17 18 19 20 20 21 21 22 22 22 22 22 21 21 20 20 19 18 18 19 20 22 23 24 25 26 26 26 25 25 25 24 25 25 26 26 25 24 25 26 26 26
Wind_Direction
311 317 320 309 313 337 17 17 15 334 56 313 285 183 271 276 116 59 55 53 79 47 19 26 255 266 281 270 235 245 239 213 192 156 189 191 153 236 205 206 210 178 183 187 203 208 205 203 204 207 209 210 209 209 208 205 201 195 189 186 185 185 184 184 185 185 187 181 172 167 164 158 151 156 152 154 157 159 162 159 154 151 155 158 163 169 166 163 162 148 156 192 191 168 152 154 149
318 320 322 306 319 6 356 16 55 344 40 3 297 165 257 351 57 93 134 128 163 218 354 9 326 261 247 270 270 276 267 239 215 180 165 163 137 181 177 211 201 185 210 199 206 212 211 207 206 208 209 211 212 212 211 210 205 199 194 191 189 189 189 190 190 192 193 188 185 179 174 168 162 166 162 159 160 162 163 160 157 158 159 159 163 167 168 168 165 158 228 238 230 234 226 217 216
329 329 329 311 34 7 334 20 92 74 58 17 285 273 4 50 68 144 150 140 151 19 5 13 340 306 252 275 255 223 247 154 180 179 153 170 170 183 216 224 203 201 215 217 213 214 217 212 210 211 211 212 214 215 214 213 208 203 199 195 193 192 193 194 194 196 196 196 200 193 181 180 178 178 175 171 169 169 166 160 158 160 164 164 164 173 186 190 193 222 255 257 254 255 245 233 231
349 1 351 15 57 14 2 52 140 122 73 245 252 303 357 104 115 139 137 118 139 14 18 65 322 285 269 279 271 267 259 128 141 239 221 201 201 223 239 226 217 211 209 224 221 218 219 216 215 215 215 214 215 217 217 216 211 206 203 199 197 197 198 198 199 199 200 202 205 197 184 185 188 188 185 181 180 177 173 167 164 165 169 173 177 193 214 230 248 257 264 264 261 258 251 245 240
32 101 57 49 55 7 73 59 115 95 252 208 127 288 267 121 88 53 31 19 176 185 23 86 273 265 266 269 270 266 232 215 258 288 300 303 290 236 228 229 227 217 213 225 227 225 223 219 219 218 219 218 218 218 218 219 215 209 207 204 202 202 203 203 204 204 205 208 209 198 187 189 193 194 190 189 190 187 185 179 178 182 183 191 206 220 238 258 270 273 273 269 268 266 260 255 249
88 102 73 47 36 308 85 56 300 287 244 175 141 254 208 118 101 35 10 32 165 159 21 144 226 300 279 267 254 243 234 260 280 290 298 311 310 250 236 235 232 225 219 224 232 232 227 223 221 221 221 221 222 222 221 221 219 213 210 209 208 207 208 209 209 209 209 210 210 199 189 192 197 197 196 200 201 196 198 194 194 201 207 218 229 244 259 270 275 278 276 270 269 264 262 259 255
87 79 45 22 359 342 98 172 240 241 249 176 159 208 152 98 87 41 9 47 155 201 155 149 208 299 292 279 246 249 247 252 277 294 304 315 305 275 255 243 239 235 223 223 230 234 233 228 224 224 224 223 224 225 224 223 223 219 216 214 212 211 212 213 214 213 212 211 208 200 193 196 200 199 200 207 207 203 208 206 208 218 228 241 250 260 270 276 280 281 279 274 266 259 259 261 259
71 52 37 51 38 17 85 260 249 206 253 221 158 130 107 85 74 56 351 357 259 234 179 181 192 15 306 292 261 267 242 234 252 269 305 333 322 307 282 264 251 242 231 225 226 231 234 232 228 227 227 226 226 226 225 225 225 224 222 221 218 216 216 216 216 216 214 210 206 202 198 198 202 203 204 210 210 212 219 221 229 238 243 250 256 263 269 275 279 282 282 279 268 258 257 259 259
68 43 43 66 42 1 345 299 280 244 267 276 117 103 97 79 69 79 314 306 303 268 195 200 185 136 301 304 291 291 243 223 229 241 287 349 336 329 308 286 262 250 239 231 226 227 231 234 233 230 229 229 229 228 227 226 227 226 225 225 225 223 222 220 218 217 215 212 208 204 200 200 206 209 213 218 221 227 232 236 244 251 255 257 260 265 269 271 275 280 282 279 268 258 258 258 256
66 38 31 74 59 1 327 296 282 288 285 293 53 102 97 76 67 62 327 296 307 302 182 194 201 224 277 302 293 295 242 219 220 229 251 332 337 331 315 302 275 259 243 237 233 229 228 234 236 234 232 231 231 232 231 230 229 228 225 225 228 228 228 227 222 219 215 216 214 207 202 203 210 215 220 228 232 237 242 248 255 259 261 262 264 267 270 272 272 273 274 267 261 258 258 253 247
47 349 334 61 38 346 286 286 290 288 293 318 43 88 100 84 68 17 352 306 312 331 178 183 210 263 268 275 280 289 244 221 215 219 240 282 329 339 325 309 288 275 250 243 241 236 232 232 237 238 235 234 234 234 234 233 232 230 228 226 226 227 229 230 226 223 219 221 221 215 209 206 212 220 226 232 236 241 248 255 264 268 265 263 264 266 269 269 267 264 259 250 246 250 243 233 228
19 340 45 73 79 229 238 286 295 299 322 356 40 79 98 79 74 348 355 321 323 344 295 190 290 326 272 257 281 284 247 231 230 224 239 255 299 338 335 316 294 286 264 250 246 242 237 235 236 238 238 237 238 237 237 236 235 233 231 230 228 226 228 229 227 225 224 225 226 222 219 215 219 227 232 234 238 245 253 261 269 270 265 261 257 259 262 260 258 254 243 232 223 225 221 218 218
360 7 63 119 222 253 286 292 293 322 342 344 213 118 94 68 81 280 332 319 317 342 32 154 337 320 271 276 284 278 258 245 238 232 245 249 269 309 324 317 296 284 275 264 255 248 243 239 237 238 240 238 239 240 240 240 238 235 233 232 232 230 228 228 227 226 226 226 228 225 224 224 228 233 236 239 243 251 259 266 270 265 258 253 246 247 250 248 246 239 229 217 214 215 216 219 222
359 2 65 209 309 320 285 285 294 356 309 274 199 146 117 71 17 282 287 304 301 300 238 294 309 298 276 277 271 267 274 265 243 245 251 243 258 286 301 305 295 279 275 272 265 257 250 245 241 239 240 240 240 240 242 243 240 237 235 233 233 233 232 230 229 227 227 227 227 227 227 229 234 239 243 246 250 256 262 267 267 258 251 244 240 239 238 237 232 224 216 212 213 214 216 220 223
360 1 70 116 337 329 266 234 235 126 252 260 180 179 85 23 320 270 231 252 285 271 279 303 300 273 268 258 259 269 288 288 258 253 253 246 260 278 288 291 285 275 270 272 269 264 258 251 245 241 240 240 240 241 243 245 242 238 235 234 234 235 235 234 233 230 229 229 229 229 231 235 240 245 249 252 254 258 261 265 265 255 247 239 235 235 230 226 222 214 212 210 210 210 213 215 217
7 12 63 57 302 316 257 227 44 78 271 264 179 222 18 15 346 279 230 244 271 272 277 282 270 270 272 270 284 290 286 280 266 261 259 260 268 277 283 284 276 270 266 266 267 267 262 256 249 244 241 240 240 241 243 244 243 239 236 235 235 235 236 235 235 234 232 232 233 234 236 240 245 249 253 256 258 260 261 263 262 251 244 239 232 230 225 222 219 214 213 209 205 207 207 209 208
45 60 70 359 243 231 245 247 13 10 268 294 320 325 24 358 353 335 285 263 268 279 282 277 272 272 275 284 298 297 284 276 267 265 267 271 274 277 281 282 275 270 267 263 265 266 262 258 254 249 244 241 240 240 242 243 241 239 237 236 235 236 236 235 235 234 233 234 236 237 240 244 248 252 255 258 259 261 262 261 255 245 242 238 232 229 223 221 221 217 215 210 207 208 205 206 207
142 93 111 242 219 206 216 227 317 312 285 313 327 353 29 2 344 336 309 265 267 279 283 282 280 274 278 292 297 288 281 276 271 269 271 272 273 277 282 283 281 275 270 265 262 261 261 259 256 253 249 245 242 240 241 242 241 240 239 237 236 236 235 234 234 233 233 234 237 239 241 245 249 253 256 258 259 260 259 255 248 241 240 236 231 229 225 223 223 219 216 213 210 209 208 210 213
179 138 142 225 210 228 275 299 317 331 314 316 333 350 355 327 327 330 308 270 278 280 282 286 286 283 287 295 293 291 290 281 276 275 273 273 273 278 284 285 285 280 275 272 266 260 258 258 256 252 250 249 246 243 242 241 241 240 240 238 236 235 235 234 233 233 233 236 238 240 242 245 249 253 255 256 257 257 254 248 242 239 239 236 230 230 227 224 224 221 219 219 214 211 212 215 220
204 175 168 241 225 261 287 296 312 315 312 321 332 325 319 313 317 319 299 286 286 267 275 284 286 289 294 295 291 296 300 289 281 278 276 275 272 274 280 285 288 286 284 281 271 258 253 252 253 253 250 248 249 248 245 243 241 239 240 240 238 236 234 234 235 235 235 236 237 239 241 243 246 249 251 251 251 252 250 244 238 237 239 236 232 232 230 226 226 224 224 225 218 215 218 221 226
193 170 189 235 232 266 274 284 302 306 312 318 315 317 313 309 308 301 296 302 284 257 268 276 282 289 293 292 290 292 293 288 282 279 276 274 274 274 278 284 288 289 287 281 270 258 252 249 250 253 252 249 248 250 250 248 245 241 240 239 239 239 237 236 236 237 237 237 238 238 240 242 243 246 248 248 248 248 247 243 238 236 238 237 234 235 234 230 229 225 226 229 222 219 224 228 232
197 201 216 228 238 259 270 284 299 299 303 305 309 312 303 306 300 286 285 281 270 273 278 280 282 287 290 290 291 291 288 286 286 282 278 276 277 278 279 283 287 286 284 280 277 269 259 254 251 250 252 251 248 249 251 252 251 247 244 242 240 240 240 239 238 238 238 239 239 239 241 242 243 245 247 247 246 246 245 241 238 237 238 238 235 236 237 233 231 225 225 230 225 223 228 233 237
218 249 232 235 244 251 275 289 298 299 298 289 292 295 296 307 296 286 269 262 277 285 286 284 284 285 288 289 289 289 287 284 283 281 279 277 276 279 282 284 285 285 283 281 282 278 267 260 255 249 248 251 250 249 248 249 250 251 250 247 244 242 242 242 241 240 239 239 239 240 241 243 244 245 247 248 247 246 243 239 237 237 238 239 236 236 238 235 231 226 226 229 227 226 229 234 239
214 257 240 240 249 257 281 294 296 301 298 283 290 295 291 289 287 289 276 276 287 294 293 288 286 286 287 288 288 288 285 281 280 281 283 282 280 282 284 284 284 283 281 282 284 283 277 271 265 257 250 250 251 251 249 248 248 249 251 250 249 247 245 244 244 243 242 240 238 239 241 244 245 246 247 249 249 248 245 240 236 235 238 238 236 236 237 236 233 228 228 229 228 228 230 233 237
220 250 258 256 271 281 293 300 298 297 292 288 293 287 279 274 277 281 278 284 294 301 301 296 290 287 284 287 288 285 281 279 283 289 290 289 288 285 281 282 282 281 281 284 287 286 286 282 273 266 259 253 251 251 251 251 250 249 249 250 251 251 250 248 246 245 245 244 241 239 240 243 245 246 247 248 250 251 249 244 238 236 237 238 236 236 236 236 234 231 230 230 229 229 231 234 236
282 304 316 311 301 299 301 302 296 291 286 285 286 279 278 276 277 277 274 284 300 304 302 298 292 286 281 284 287 284 281 281 290 298 296 293 291 285 281 279 278 282 286 287 285 283 287 282 274 273 271 265 256 250 251 251 252 251 251 251 252 254 255 255 252 249 249 248 246 243 241 242 244 245 246 248 250 252 252 248 243 238 237 239 237 236 237 237 234 232 232 232 231 230 232 236 238
318 337 330 311 302 303 301 295 288 286 284 279 263 261 274 271 265 269 276 291 303 300 301 299 294 291 286 284 284 286 284 286 297 303 301 296 292 288 285 279 276 282 287 287 288 287 283 278 275 275 273 270 263 256 253 252 253 253 254 253 253 254 255 257 257 256 255 253 252 249 246 245 246 246 245 247 250 252 253 252 247 241 238 240 239 237 237 238 236 234 234 234 233 231 233 237 238
317 331 332 306 307 306 294 285 282 281 281 272 245 237 273 269 213 250 274 297 303 298 301 299 295 295 294 292 291 293 294 298 304 305 304 301 297 295 290 281 278 283 285 286 292 290 282 278 277 276 273 270 266 261 256 253 253 254 254 254 254 255 255 256 257 258 259 259 259 256 251 249 249 249 247 248 251 253 253 253 250 244 241 241 242 240 238 239 238 234 234 234 232 229 231 234 237
321 321 330 299 318 310 285 276 273 268 265 265 223 197 284 253 232 253 275 298 300 298 297 297 299 299 302 307 307 308 310 311 314 315 312 307 301 298 290 279 277 279 283 286 287 286 282 281 279 277 274 271 269 267 262 257 254 253 252 253 254 254 254 255 256 258 260 262 263 262 259 256 255 255 255 255 255 255 254 254 252 247 244 244 243 242 240 240 240 235 234 235 232 229 230 233 234
318 311 198 291 335 312 277 274 272 269 247 222 172 157 277 237 247 260 286 298 299 300 296 297 297 298 303 309 312 315 323 334 350 352 339 322 306 295 281 272 270 269 271 275 277 281 283 282 281 279 275 273 273 271 266 261 255 253 252 252 251 252 252 254 255 257 259 260 262 262 262 262 262 262 262 261 260 258 256 256 255 251 248 246 245 244 242 241 242 239 236 237 235 233 233 234 236
300 310 83 268 295 278 281 284 278 279 209 185 162 200 258 249 261 270 291 292 293 296 292 292 293 298 305 311 319 332 12 44 55 52 45 46 47 292 254 253 255 251 251 256 264 275 281 284 283 279 277 276 274 271 269 266 259 256 254 252 251 251 251 252 254 255 257 258 259 260 261 263 265 266 266 265 263 261 259 259 258 255 252 251 249 247 245 242 242 241 239 239 238 236 235 236 237
276 290 309 280 203 257 293 293 265 215 195 174 161 236 254 263 264 269 286 284 287 291 287 290 295 301 307 320 350 48 72 69 73 69 62 69 91 115 143 166 194 219 235 245 258 277 286 288 287 281 279 277 274 272 270 267 262 257 254 253 252 252 252 252 252 253 254 256 257 259 261 262 264 266 266 266 264 262 262 262 262 260 256 255 255 252 249 245 242 241 240 239 240 239 238 238 238
309 199 250 263 231 264 303 305 296 163 129 206 215 243 265 275 264 268 283 284 285 284 284 290 297 300 309 347 54 76 73 70 67 56 48 46 59 79 106 131 169 220 249 254 260 281 305 294 284 283 280 275 274 272 269 266 262 258 254 253 252 252 252 251 252 252 253 255 257 258 260 261 262 263 265 265 265 264 264 264 264 262 258 258 258 257 255 251 246 243 240 240 241 241 240 240 240
294 232 229 245 244 266 280 301 315 69 92 296 258 236 251 266 271 273 279 281 278 276 283 292 298 302 324 63 73 69 66 62 53 45 38 28 21 15 1 324 279 252 254 258 259 261 230 178 231 259 267 269 269 268 266 263 260 257 254 252 251 251 250 250 251 252 253 255 256 257 257 259 260 261 263 264 265 265 264 264 263 262 259 259 259 258 257 255 250 246 243 241 242 242 241 241 241
239 235 239 266 258 267 269 275 308 352 344 304 282 267 265 272 275 278 282 281 278 282 292 299 304 325 83 86 74 69 67 62 55 49 41 29 14 1 345 321 296 267 233 229 229 218 185 160 166 187 219 248 258 260 259 255 254 252 251 250 249 250 250 250 251 252 254 254 255 256 256 257 258 260 262 263 264 264 263 263 262 260 259 259 259 257 256 255 253 250 247 243 242 243 243 243 242
222 232 235 263 260 267 267 259 285 322 317 286 268 266 276 287 288 288 289 290 294 298 301 310 2 88 94 83 76 74 69 67 64 60 56 48 39 30 23 27 30 101 124 138 154 157 157 153 157 161 169 193 205 242 257 254 254 253 251 251 249 249 250 251 252 253 254 255 256 256 257 257 257 259 260 262 263 263 263 263 262 261 259 259 258 256 256 256 257 256 253 248 243 242 242 241 239
235 253 258 257 247 265 274 271 286 335 341 269 265 294 294 292 297 290 288 295 308 303 310 70 94 95 89 84 80 76 74 72 73 72 68 64 62 63 68 74 85 102 106 113 119 109 114 125 120 113 114 116 115 113 119 230 254 256 255 255 255 255 255 256 257 258 259 260 260 261 261 262 261 261 261 262 263 263 264 263 261 260 259 258 258 258 258 259 259 259 257 252 246 243 242 241 239
243 240 252 266 250 264 277 279 289 352 29 269 302 347 306 295 293 284 288 304 326 317 98 103 99 93 87 86 82 80 80 79 79 78 74 74 73 74 77 80 83 86 89 93 95 92 84 78 81 90 98 99 100 102 101 105 116 207 243 250 254 259 259 259 259 261 263 264 265 266 266 267 267 266 266 266 266 266 265 264 262 261 260 260 260 259 259 258 258 258 256 253 248 245 244 244 242
257 250 251 279 268 290 296 293 307 13 14 275 311 324 291 291 279 279 295 340 42 71 101 103 97 93 85 83 83 84 83 79 79 77 76 78 77 78 79 78 79 80 81 82 83 82 78 74 74 79 82 80 81 82 84 86 86 88 73 281 279 284 282 279 278 275 271 267 267 268 268 270 271 271 271 270 269 268 267 266 264 263 261 261 260 259 259 258 258 257 256 255 251 247 244 243 243
261 255 258 274 277 320 284 295 327 338 290 260 300 297 282 283 269 283 346 77 83 83 91 91 92 92 87 86 85 84 83 80 79 79 79 79 78 78 78 78 79 79 78 77 77 76 74 73 72 72 73 71 72 70 69 72 75 83 89 326 287 308 311 309 317 317 305 292 281 274 273 272 272 274 273 273 273 271 270 268 266 264 262 262 261 260 260 260 259 258 258 257 253 249 245 244 244
264 224 217 244 257 232 231 274 329 329 322 341 5 324 289 251 256 280 63 91 85 83 87 84 84 87 88 88 84 83 84 83 82 81 80 79 78 77 76 77 77 76 75 73 73 73 72 72 70 69 68 67 67 65 65 65 66 71 74 76 85 97 97 82 52 16 354 353 343 328 311 294 282 278 274 273 272 271 270 269 267 265 263 263 262 262 262 262 261 260 259 258 255 252 250 248 246
288 236 217 221 229 236 246 328 9 14 334 325 46 10 291 252 255 267 128 94 68 73 81 80 81 84 86 84 82 84 84 84 84 83 83 82 81 80 78 77 76 75 74 71 70 69 68 68 66 65 64 63 61 60 59 58 58 59 59 58 58 60 57 49 39 7 353 3 5 356 350 346 335 314 294 283 276 273 270 268 267 266 264 264 264 264 264 263 262 261 260 259 257 256 254 250 248
274 252 212 197 196 208 244 17 31 47 256 279 72 101 274 269 255 258 150 98 80 76 73 76 79 80 83 83 83 85 85 86 85 83 86 86 85 83 80 77 75 73 72 69 67 65 63 63 63 63 63 62 61 58 56 53 52 52 52 52 50 49 46 39 32 3 348 0 7 359 356 360 1 356 348 332 312 294 282 273 269 267 265 265 264 265 264 264 263 263 263 261 260 259 255 251 250
232 255 129 114 127 163 183 116 171 228 251 306 277 180 255 278 248 245 126 103 96 88 76 75 80 80 83 84 84 86 87 89 87 82 82 83 84 82 79 76 74 72 70 68 65 63 63 62 62 63 62 62 61 58 56 53 51 50 50 51 50 50 48 44 41 28 9 8 10 9 7 5 4 4 4 1 355 341 319 295 279 271 268 266 265 265 264 264 264 264 263 262 261 259 256 254 253
237 233 113 102 124 153 166 141 214 258 345 309 258 185 234 273 261 242 121 123 135 122 107 86 85 86 86 86 87 89 91 92 91 88 82 80 81 80 78 75 71 70 67 65 65 65 64 63 63 62 61 61 59 56 54 52 52 51 51 51 51 51 51 49 47 43 37 28 20 17 14 9 5 2 2 1 0 356 348 336 314 290 276 270 268 267 265 264 263 263 263 262 261 260 259 257 256
235 170 90 62 69 107 118 152 152 6 346 255 232 187 193 269 283 299 119 147 167 142 115 97 93 91 92 93 94 95 95 94 93 92 88 84 81 79 77 74 69 67 65 64 66 64 63 62 59 58 59 58 56 54 52 53 54 52 52 52 51 51 51 50 49 47 46 43 38 30 22 14 7 2 359 358 355 352 348 345 339 325 304 284 274 270 267 264 262 262 262 262 263 262 261 259 258
117 78 50 23 8 16 35 75 89 52 285 242 223 201 188 266 289 240 176 179 162 146 130 121 102 96 100 103 103 102 100 98 96 94 91 86 82 79 75 71 68 67 65 65 65 63 61 59 55 54 56 55 53 52 51 54 55 53 53 51 49 48 47 45 43 42 41 40 39 36 31 22 11 4 360 356 350 344 341 341 340 336 328 312 293 279 271 267 264 263 263 262 263 262 261 260 260
94 73 62 20 339 7 30 7 49 102 253 258 238 205 183 223 267 297 333 34 138 142 147 145 120 106 109 111 111 108 104 101 98 95 91 88 83 77 71 69 69 68 66 65 64 63 61 59 55 53 55 54 52 51 52 54 55 53 51 48 46 44 40 37 35 33 31 29 29 29 28 26 19 10 3 357 350 342 338 336 334 332 330 324 312 295 279 270 265 263 263 262 262 262 261 261 260
90 86 84 39 318 358 7 310 107 208 247 258 244 160 176 225 251 17 14 25 68 101 120 128 124 121 121 118 116 112 108 104 99 94 89 84 77 71 68 67 67 67 66 65 64 62 60 59 55 53 56 57 54 54 54 53 52 49 45 41 40 38 34 32 29 27 24 21 19 18 18 20 19 15 7 360 354 348 343 339 334 330 328 324 318 306 291 277 268 263 260 260 261 261 261 261 260
139 142 138 156 181 198 264 253 248 269 264 263 266 82 240 258 308 35 34 47 78 96 109 121 126 128 128 124 120 114 109 104 96 90 82 76 71 68 66 65 66 67 67 66 64 63 62 61 58 58 61 61 58 57 54 52 50 45 41 36 33 29 26 25 23 23 21 17 15 13 13 15 14 13 9 2 356 352 349 347 341 336 332 326 319 312 302 288 276 268 263 260 258 258 260 260 260
176 164 143 150 167 195 237 231 224 258 276 285 298 307 213 221 349 46 68 80 91 103 116 124 127 130 130 126 122 116 108 101 94 86 77 72 69 67 67 67 68 68 68 66 65 66 64 63 64 64 65 65 62 60 56 54 52 48 43 36 30 25 20 17 17 16 15 14 12 10 9 10 8 7 6 1 356 351 349 349 348 343 338 332 323 317 310 299 287 277 270 265 261 258 257 258 259
228 145 119 170 194 186 236 245 205 203 289 293 272 243 210 146 88 67 83 84 88 102 117 122 126 132 132 129 124 117 108 102 94 82 75 73 74 74 72 69 68 67 67 67 69 70 67 66 67 66 66 66 62 58 55 53 51 47 43 38 33 27 20 15 12 9 6 5 4 3 4 5 3 0 358 355 352 350 347 346 347 345 341 337 331 323 316 308 298 288 280 273 268 263 260 259 258
269 113 171 222 184 137 143 280 264 124 264 260 215 242 302 88 83 75 88 83 85 101 118 125 133 137 135 133 126 119 112 106 97 87 82 84 86 81 68 63 65 65 66 69 73 72 70 70 71 70 70 68 63 60 56 52 48 42 38 34 28 23 18 13 9 4 359 355 352 352 355 356 355 355 353 350 348 346 345 343 343 342 339 337 334 329 322 315 306 297 291 284 278 272 267 263 260
127 163 220 235 67 79 104 252 307 284 250 258 243 245 243 207 234 155 121 120 118 137 139 131 140 145 143 140 132 126 121 116 111 103 99 99 91 71 60 61 62 64 66 69 72 70 68 67 66 66 64 61 58 55 52 48 44 39 36 32 24 18 13 8 4 359 353 347 342 342 345 345 347 348 347 345 343 342 341 340 340 339 338 336 333 330 326 321 315 308 301 294 287 282 276 270 266
126 172 210 126 99 288 292 144 220 241 250 273 265 250 240 228 215 179 173 171 161 171 166 150 164 167 159 151 145 141 136 133 130 124 119 110 87 54 53 61 62 70 73 73 73 70 68 65 62 60 57 55 52 47 44 39 34 33 30 27 23 17 12 6 360 354 346 341 339 338 339 340 341 341 338 337 337 337 337 337 337 337 336 335 334 332 329 324 321 317 312 305 296 288 282 278 274
58 54 350 69 165 196 210 182 182 212 242 262 258 250 253 249 208 171 177 178 169 173 174 179 187 180 170 164 160 159 158 159 153 144 140 118 94 70 78 83 78 78 74 70 67 63 59 54 50 48 44 41 37 33 31 28 24 22 18 15 11 6 3 359 354 349 342 339 338 338 339 338 338 336 333 331 331 331 332 333 335 336 335 333 332 332 330 327 325 322 319 314 307 297 288 283 280
55 38 316 286 237 203 252 238 158 158 207 242 250 250 252 263 217 163 174 176 171 172 168 184 196 189 182 180 180 179 176 176 176 167 154 133 127 120 106 95 83 75 67 62 57 50 46 40 37 35 29 26 23 20 18 15 12 9 6 4 0 357 354 349 346 343 339 338 337 337 338 336 336 334 331 329 327 326 326 327 329 331 333 333 332 330 330 328 326 324 321 318 315 309 301 295 289
138 176 208 205 205 226 274 264 210 159 186 196 222 256 268 280 305 150 164 164 168 173 171 188 203 198 194 197 199 198 192 189 188 178 158 129 120 114 101 88 75 65 55 47 40 33 30 27 24 21 18 16 13 10 7 4 1 359 357 355 353 351 348 346 343 340 338 338 337 337 336 333 332 329 327 326 325 323 323 323 324 325 327 328 328 328 328 327 325 324 322 320 317 314 310 306 301